This is the latest recevied weather packets stored in our database for station/object KR4KUV. If no packets are shown the sender has not sent any weather packets the latest 10 day(s).
| Time | Temp. | Humidity | Pressure | Rain* | Wind** | Luminosity | Snow |
|---|---|---|---|---|---|---|---|
| 1777654399 | 16.67° C | 51% | 1016.8 hPa | 0 mm | - | 601 W/m² | - |
| 1777653489 | 16.11° C | 52% | 1016.8 hPa | 0 mm | - | 262 W/m² | - |
| 1777653186 | 15.56° C | 53% | 1017 hPa | 0 mm | - | 241 W/m² | - |
| 1777652883 | 15.56° C | 53% | 1017.1 hPa | 0 mm | - | 143 W/m² | - |
| 1777652580 | 15.56° C | 54% | 1017.3 hPa | 0 mm | - | 195 W/m² | - |
| 1777652276 | 15.56° C | 54% | 1017.3 hPa | 0 mm | - | 179 W/m² | - |
| 1777651973 | 15.56° C | 54% | 1017.3 hPa | 0 mm | - | 186 W/m² | - |
| 1777651669 | 16.11° C | 51% | 1017.4 hPa | 0 mm | - | 170 W/m² | - |
| 1777651366 | 16.11° C | 52% | 1017.3 hPa | 0 mm | - | 155 W/m² | - |
| 1777651058 | 15.56° C | 50% | 1017.4 hPa | 0 mm | - | 221 W/m² | - |
| 1777650755 | 15.56° C | 50% | 1017.6 hPa | 0 mm | - | 155 W/m² | - |
| 1777650149 | 16.11° C | 51% | 1017.4 hPa | 0 mm | - | 171 W/m² | - |
| 1777649846 | 16.11° C | 51% | 1017.3 hPa | 0 mm | - | 177 W/m² | - |
| 1777649544 | 16.11° C | 53% | 1017.2 hPa | 0 mm | - | 216 W/m² | - |
| 1777649240 | 16.11° C | 51% | 1017.2 hPa | 0 mm | - | 192 W/m² | - |
| 1777648937 | 16.11° C | 51% | 1017.2 hPa | 0 mm | - | 196 W/m² | - |
| 1777648634 | 15.56° C | 50% | 1017 hPa | 0 mm | - | 227 W/m² | - |
| 1777648330 | 15.56° C | 52% | 1017.1 hPa | 0 mm | - | 313 W/m² | - |
| 1777648027 | 15.56° C | 52% | 1017.2 hPa | 0 mm | - | 197 W/m² | - |
| 1777647723 | 15.56° C | 51% | 1017.2 hPa | 0 mm | - | 214 W/m² | - |
| 1777647419 | 15.56° C | 51% | 1017.4 hPa | 0 mm | - | 217 W/m² | - |
| 1777646813 | 16.67° C | 48% | 1017.2 hPa | 0 mm | - | 283 W/m² | - |
| 1777646204 | 16.11° C | 50% | 1017.2 hPa | 0 mm | - | 445 W/m² | - |
| 1777645902 | 16.11° C | 51% | 1017.2 hPa | 0 mm | - | 499 W/m² | - |
| 1777645598 | 15.56° C | 51% | 1017.2 hPa | 0 mm | - | 469 W/m² | - |
* Rain latest hour (hover to see other rain measurements)
** Current wind speed in m/s (hover to see current wind gust speed)